This is the latest recevied weather packets stored in our database for station/object VANOK. If no packets are shown the sender has not sent any weather packets the latest 10 day(s).
| Time | Temp. | Humidity | Pressure | Rain* | Wind** | Luminosity | Snow |
|---|---|---|---|---|---|---|---|
| 1777784830 | 7.22° C | 81% | 1007.4 hPa | - | - | - | - |
| 1777783630 | 7.22° C | 80% | 1007 hPa | - | - | - | - |
| 1777782430 | 7.22° C | 82% | 1007.2 hPa | - | - | - | - |
| 1777781230 | 7.22° C | 81% | 1006.7 hPa | - | - | - | - |
| 1777780030 | 7.78° C | 80% | 1006.8 hPa | - | - | - | - |
| 1777778830 | 7.22° C | 81% | 1006.3 hPa | - | - | - | - |
| 1777777631 | 7.22° C | 83% | 1006.3 hPa | - | - | - | - |
| 1777776431 | 6.67° C | 87% | 1006.2 hPa | - | - | - | - |
| 1777775230 | 6.67° C | 86% | 1005.8 hPa | - | - | - | - |
| 1777774030 | 6.67° C | 84% | 1005.9 hPa | - | - | - | - |
| 1777772831 | 6.67° C | 84% | 1005.9 hPa | - | - | - | - |
| 1777771630 | 7.22° C | 83% | 1005.8 hPa | - | - | - | - |
| 1777770430 | 7.22° C | 82% | 1005.8 hPa | - | - | - | - |
| 1777769231 | 7.22° C | 82% | 1005.8 hPa | - | - | - | - |
| 1777768030 | 6.67° C | 84% | 1005.9 hPa | - | - | - | - |
| 1777766830 | 7.22° C | 82% | 1005.9 hPa | - | - | - | - |
| 1777765630 | 7.22° C | 84% | 1005.9 hPa | - | - | - | - |
| 1777764430 | 7.22° C | 84% | 1006.1 hPa | - | - | - | - |
| 1777763230 | 7.22° C | 82% | 1006.2 hPa | - | - | - | - |
| 1777762030 | 7.22° C | 83% | 1006.3 hPa | - | - | - | - |
| 1777760830 | 7.22° C | 84% | 1006.4 hPa | - | - | - | - |
| 1777759631 | 7.22° C | 84% | 1006.6 hPa | - | - | - | - |
| 1777758429 | 7.22° C | 83% | 1006.9 hPa | - | - | - | - |
| 1777757229 | 7.22° C | 83% | 1007.1 hPa | - | - | - | - |
| 1777756030 | 7.22° C | 83% | 1007.1 hPa | - | - | - | - |
* Rain since midnight (hover to see other rain measurements)
** Current wind speed in m/s (hover to see current wind gust speed)